• In Spain
  • List of Countries
  • For 7 days
  • Water Temperature
  • Satellite Maps
  • Weather Map
  • Weather Widgets
  • user-avatar
    Login

    Hourly Weather Quito

    Today, 17 October, Wednesday

    Time Temperature Precipitation Wind Pressure Humidity
    00:00 +19°C° 0 mm 2 mps 623 mmHg 73%
    01:00 +20°C° 0 mm 1 mps 623 mmHg 72%
    02:00 +20°C° 0 mm 1 mps 622 mmHg 73%
    03:00 +20°C° 0 mm 1 mps 622 mmHg 75%
    04:00 +20°C° 0 mm 1 mps 622 mmHg 76%
    05:00 +21°C° 0 mm 1 mps 622 mmHg 72%
    06:00 +22°C° 0 mm 1 mps 623 mmHg 67%
    07:00 +23°C° 0 mm 1 mps 624 mmHg 62%
    08:00 +27°C° 0 mm 1 mps 625 mmHg 51%
    09:00 +31°C° 0 mm 1 mps 626 mmHg 40%
    10:00 +33°C° 0 mm 0 mps 627 mmHg 29%
    11:00 +34°C° 0 mm 1 mps 625 mmHg 28%
    12:00 +33°C° 0 mm 1 mps 624 mmHg 27%
    13:00 +31°C° 0 mm 1 mps 623 mmHg 26%
    14:00 +31°C° 0 mm 1 mps 623 mmHg 28%
    15:00 +31°C° 0 mm 1 mps 622 mmHg 30%
    16:00 +30°C° 0 mm 1 mps 622 mmHg 32%
    17:00 +28°C° 0 mm 1 mps 621 mmHg 36%
    18:00 +26°C° 0 mm 1 mps 621 mmHg 41%
    19:00 +22°C° 0 mm 0 mps 621 mmHg 46%
    20:00 +23°C° 0 mm 1 mps 621 mmHg 49%
    21:00 +23°C° 0 mm 1 mps 621 mmHg 53%
    22:00 +22°C° 0 mm 1 mps 622 mmHg 56%
    23:00 +21°C° 0.1 mm 2 mps 622 mmHg 60%

    Tomorrow, 18 October, Thursday

    Time Temperature Precipitation Wind Pressure Humidity
    00:00 +20°C° 0.1 mm 2 mps 622 mmHg 64%
    01:00 +20°C° 0.1 mm 2 mps 622 mmHg 68%
    02:00 +20°C° 0.2 mm 2 mps 622 mmHg 70%
    03:00 +19°C° 0.2 mm 2 mps 621 mmHg 73%
    04:00 +19°C° 0.2 mm 2 mps 621 mmHg 75%
    05:00 +20°C° 0.1 mm 2 mps 622 mmHg 72%
    06:00 +20°C° 0.1 mm 2 mps 622 mmHg 69%
    07:00 +22°C° 0.1 mm 1 mps 623 mmHg 66%
    08:00 +26°C° 0 mm 1 mps 624 mmHg 53%
    09:00 +29°C° 0 mm 1 mps 625 mmHg 40%
    10:00 +33°C° 0 mm 1 mps 626 mmHg 26%
    11:00 +34°C° 0 mm 2 mps 625 mmHg 25%
    12:00 +34°C° 0 mm 2 mps 624 mmHg 25%
    13:00 +34°C° 0 mm 3 mps 623 mmHg 24%
    14:00 +33°C° 0 mm 3 mps 623 mmHg 27%
    15:00 +31°C° 0 mm 3 mps 622 mmHg 30%
    16:00 +30°C° 0 mm 3 mps 621 mmHg 33%
    17:00 +28°C° 0.3 mm 2 mps 621 mmHg 40%
    18:00 +26°C° 0.3 mm 2 mps 621 mmHg 46%
    19:00 +24°C° 0.3 mm 2 mps 621 mmHg 53%
    20:00 +23°C° 2 mm 2 mps 621 mmHg 61%
    21:00 +20°C° 2 mm 3 mps 621 mmHg 69%
    22:00 +19°C° 2 mm 3 mps 622 mmHg 78%
    23:00 +19°C° 0.4 mm 3 mps 622 mmHg 77%

    Day after tomorrow, 19 October, Friday

    Time Temperature Precipitation Wind Pressure Humidity
    00:00 +19°C° 0.4 mm 2 mps 621 mmHg 75%
    01:00 +20°C° 0.4 mm 1 mps 621 mmHg 74%
    02:00 +19°C° 0.2 mm 1 mps 621 mmHg 78%
    03:00 +19°C° 0.2 mm 1 mps 620 mmHg 81%
    04:00 +18°C° 0.2 mm 1 mps 620 mmHg 85%
    05:00 +19°C° 0.1 mm 1 mps 621 mmHg 81%
    06:00 +20°C° 0.1 mm 1 mps 622 mmHg 77%
    07:00 +21°C° 0.1 mm 1 mps 623 mmHg 73%
    08:00 +25°C° 0 mm 1 mps 624 mmHg 59%
    09:00 +29°C° 0 mm 1 mps 625 mmHg 46%
    10:00 +31°C° 0 mm 0 mps 626 mmHg 33%
    11:00 +33°C° 0 mm 1 mps 625 mmHg 31%
    12:00 +34°C° 0 mm 2 mps 625 mmHg 28%
    13:00 +34°C° 0 mm 3 mps 624 mmHg 25%
    14:00 +33°C° 0 mm 3 mps 623 mmHg 27%
    15:00 +33°C° 0 mm 3 mps 623 mmHg 29%
    16:00 +31°C° 0 mm 3 mps 622 mmHg 31%
    17:00 +28°C° 0.5 mm 3 mps 622 mmHg 42%
    18:00 +25°C° 0.5 mm 3 mps 622 mmHg 53%
    19:00 +22°C° 0.5 mm 3 mps 622 mmHg 64%
    20:00 +21°C° 1.6 mm 2 mps 622 mmHg 70%
    21:00 +20°C° 1.6 mm 2 mps 623 mmHg 76%
    22:00 +20°C° 1.6 mm 1 mps 623 mmHg 82%
    23:00 +20°C° 0.2 mm 1 mps 622 mmHg 82%

    20 October, Saturday

    Time Temperature Precipitation Wind Pressure Humidity
    00:00 +19°C° 0.2 mm 2 mps 622 mmHg 82%
    01:00 +19°C° 0.2 mm 2 mps 622 mmHg 82%
    02:00 +20°C° 0 mm 1 mps 621 mmHg 82%
    03:00 +19°C° 0 mm 1 mps 621 mmHg 82%
    04:00 +19°C° 0 mm 1 mps 621 mmHg 82%
    05:00 +20°C° 0 mm 1 mps 622 mmHg 78%
    06:00 +21°C° 0 mm 1 mps 623 mmHg 75%
    07:00 +22°C° 0 mm 1 mps 624 mmHg 71%
    08:00 +25°C° 0.1 mm 1 mps 625 mmHg 60%
    09:00 +28°C° 0.1 mm 1 mps 626 mmHg 49%
    10:00 +31°C° 0.1 mm 1 mps 627 mmHg 38%
    11:00 +32°C° 0 mm 1 mps 626 mmHg 35%
    12:00 +32°C° 0 mm 2 mps 625 mmHg 32%
    13:00 +33°C° 0 mm 3 mps 624 mmHg 29%
    14:00 +31°C° 0 mm 3 mps 624 mmHg 32%
    15:00 +30°C° 0 mm 3 mps 623 mmHg 34%
    16:00 +29°C° 0 mm 3 mps 623 mmHg 37%
    17:00 +27°C° 2.7 mm 3 mps 622 mmHg 49%
    18:00 +23°C° 2.7 mm 4 mps 622 mmHg 61%
    19:00 +20°C° 2.7 mm 4 mps 622 mmHg 73%
    20:00 +20°C° 0.6 mm 3 mps 622 mmHg 74%
    21:00 +20°C° 0.6 mm 2 mps 622 mmHg 75%
    22:00 +21°C° 0.6 mm 1 mps 622 mmHg 76%
    23:00 +21°C° 0 mm 1 mps 622 mmHg 74%

    21 October, Sunday

    Time Temperature Precipitation Wind Pressure Humidity
    00:00 +20°C° 0 mm 1 mps 622 mmHg 73%
    01:00 +18°C° 0 mm 0 mps 621 mmHg 71%
    02:00 +20°C° 0.3 mm 1 mps 621 mmHg 74%
    03:00 +20°C° 0.3 mm 1 mps 621 mmHg 77%
    04:00 +19°C° 0.3 mm 1 mps 621 mmHg 80%
    05:00 +20°C° 0.1 mm 1 mps 622 mmHg 78%
    06:00 +21°C° 0.1 mm 1 mps 622 mmHg 76%
    07:00 +22°C° 0.1 mm 1 mps 623 mmHg 73%
    08:00 +25°C° 0.4 mm 1 mps 624 mmHg 64%
    09:00 +28°C° 0.4 mm 1 mps 625 mmHg 54%
    10:00 +30°C° 0.4 mm 1 mps 625 mmHg 44%
    11:00 +30°C° 0.2 mm 1 mps 625 mmHg 42%
    12:00 +30°C° 0.2 mm 2 mps 624 mmHg 40%
    13:00 +30°C° 0.2 mm 2 mps 623 mmHg 39%
    14:00 +30°C° 0 mm 2 mps 623 mmHg 39%
    15:00 +30°C° 0 mm 2 mps 623 mmHg 39%
    16:00 +29°C° 0 mm 2 mps 622 mmHg 39%
    17:00 +27°C° 0.2 mm 2 mps 622 mmHg 47%
    18:00 +25°C° 0.2 mm 1 mps 622 mmHg 54%
    19:00 +23°C° 0.2 mm 1 mps 622 mmHg 62%
    20:00 +23°C° 0.6 mm 1 mps 622 mmHg 67%
    21:00 +22°C° 0.6 mm 1 mps 622 mmHg 72%
    22:00 +21°C° 0.6 mm 1 mps 622 mmHg 77%
    23:00 +21°C° 0 mm 1 mps 622 mmHg 78%

    22 October, Monday

    Time Temperature Precipitation Wind Pressure Humidity
    00:00 +20°C° 0 mm 1 mps 621 mmHg 79%
    01:00 +20°C° 0 mm 1 mps 620 mmHg 80%
    02:00 +20°C° 0 mm 1 mps 620 mmHg 81%
    03:00 +20°C° 0 mm 1 mps 620 mmHg 83%
    04:00 +19°C° 0 mm 1 mps 620 mmHg 84%
    05:00 +20°C° 0 mm 1 mps 621 mmHg 80%
    06:00 +20°C° 0 mm 2 mps 622 mmHg 76%
    07:00 +21°C° 0 mm 2 mps 623 mmHg 72%
    08:00 +25°C° 0 mm 2 mps 623 mmHg 61%
    09:00 +28°C° 0 mm 1 mps 624 mmHg 50%
    10:00 +31°C° 0 mm 1 mps 625 mmHg 39%
    11:00 +31°C° 0 mm 1 mps 624 mmHg 38%
    12:00 +31°C° 0 mm 1 mps 623 mmHg 37%
    13:00 +31°C° 0 mm 1 mps 622 mmHg 36%
    14:00 +30°C° 0 mm 1 mps 622 mmHg 37%
    15:00 +30°C° 0 mm 2 mps 622 mmHg 38%
    16:00 +30°C° 0 mm 2 mps 622 mmHg 39%
    17:00 +27°C° 0.1 mm 2 mps 621 mmHg 46%
    18:00 +25°C° 0.1 mm 1 mps 621 mmHg 52%
    19:00 +23°C° 0.1 mm 1 mps 621 mmHg 59%
    20:00 +22°C° 1.9 mm 1 mps 621 mmHg 68%
    21:00 +20°C° 1.9 mm 2 mps 622 mmHg 76%
    22:00 +19°C° 1.9 mm 2 mps 622 mmHg 85%
    23:00 +19°C° 2.3 mm 2 mps 622 mmHg 87%
    Show more